Bowling Green, KY

12:22 AM CST on February 07, 2016 (GMT -0600)
Bowling Green-Warren County Regional

Weather History for KBWG - October, 2013

Change the Weather History Date:

Monday, October 7, 2013

  Actual Average Record
Temperature  
Mean Temperature 56 °F 62 °F  
Max Temperature 66 °F 74 °F 93 °F (1941)
Min Temperature 46 °F 49 °F 28 °F (1889)
Degree Days  
Heating Degree Days 9 5  
Month to date heating degree days 11 31  
Since 1 July heating degree days 23 67  
Cooling Degree Days 0 2  
Month to date cooling degree days 40 15  
Year to date cooling degree days 1492 1470  
Growing Degree Days 6 (Base 50)    
Moisture  
Dew Point 46 °F    
Average Humidity 69    
Maximum Humidity 93    
Minimum Humidity 44    
Precipitation  
Precipitation 0.00 in 0.11 in 1.39 in (2008)
Month to date precipitation 2.07 0.79  
Year to date precipitation 49.86 38.28  
Snow  
Snow 0.00 in 0.00 in 0.00 in ()
Month to date snowfall 0.0 0.0  
Since 1 July snowfall 0.0 0.0  
Since 1 September snowfall 0.0 0.0  
Snow Depth 0.00 in    
Sea Level Pressure  
Sea Level Pressure 30.04 in    
Wind  
Wind Speed 3 mph (NW)    
Max Wind Speed 12 mph    
Max Gust Speed 17 mph    
Visibility 10 miles    
Events      
T = Trace of Precipitation, MM = Missing Value Source: NWS Daily Summary

Daily Weather History Graph

Daily Weather History Graph

Search for Another Location

Airport or City:

Trip Planner

Search our weather history database for the weather conditions in past years. The results will help you decide how hot, cold, wet, or windy it might be!

Date:

Astronomy

Oct. 07, 2013 Rise Set
Actual Time 6:46 AM CDT 6:19 PM CDT
Civil Twilight 6:20 AM CDT 6:45 PM CDT
Nautical Twilight 5:50 AM CDT 7:15 PM CDT
Astronomical Twilight 5:20 AM CDT 7:45 PM CDT
Moon 9:31 AM CDT 8:09 PM CDT
Length of Visible Light 12h 25m
Length of Day
11h 33m
Waxing Crescent, 9% of the Moon is Illuminated
Oct 7
Waxing Crescent
Oct 11
First Quarter
Oct 18
Full
Oct 26
Last Quarter
Nov 3
New

Hourly Weather History & Observations

Time (CDT) Temp. Windchill Dew Point Humidity Pressure Visibility Wind Dir Wind Speed Gust Speed Precip Events Conditions
12:53 AM 53.1 °F - 48.0 °F 83% 29.95 in 10.0 mi Calm Calm - N/A   Clear
1:53 AM 50.0 °F - 48.0 °F 93% 29.95 in 10.0 mi Calm Calm - N/A   Clear
2:53 AM 48.9 °F - 46.9 °F 93% 29.95 in 10.0 mi Calm Calm - N/A   Clear
3:53 AM 48.0 °F - 46.0 °F 93% 29.95 in 10.0 mi Calm Calm - N/A   Clear
4:53 AM 46.9 °F - 45.0 °F 93% 29.96 in 10.0 mi Calm Calm - N/A   Clear
5:53 AM 46.9 °F - 45.0 °F 93% 29.97 in 10.0 mi Calm Calm - N/A   Clear
6:53 AM 46.0 °F 44.8 °F 44.1 °F 93% 30.00 in 10.0 mi WSW 3.5 mph - N/A   Clear
7:53 AM 50.0 °F - 46.9 °F 89% 30.03 in 10.0 mi WSW 3.5 mph - N/A   Clear
8:53 AM 54.0 °F - 46.9 °F 77% 30.04 in 10.0 mi WNW 5.8 mph - N/A   Clear
9:53 AM 57.0 °F - 46.0 °F 67% 30.05 in 10.0 mi NNW 6.9 mph - N/A   Clear
10:53 AM 59.0 °F - 46.9 °F 64% 30.05 in 10.0 mi NNW 4.6 mph - N/A   Clear
11:53 AM 61.0 °F - 46.0 °F 58% 30.06 in 10.0 mi Variable 3.5 mph - N/A   Clear
12:53 PM 62.1 °F - 46.0 °F 56% 30.05 in 10.0 mi Variable 5.8 mph - N/A   Clear
1:53 PM 64.0 °F - 45.0 °F 50% 30.05 in 10.0 mi Variable 4.6 mph - N/A   Clear
2:53 PM 66.0 °F - 44.1 °F 45% 30.05 in 10.0 mi Variable 4.6 mph - N/A   Clear
3:53 PM 66.0 °F - 44.1 °F 45% 30.05 in 10.0 mi North 6.9 mph - N/A   Clear
4:53 PM 64.9 °F - 43.0 °F 45% 30.06 in 10.0 mi North 4.6 mph - N/A   Clear
5:53 PM 63.0 °F - 44.1 °F 50% 30.07 in 10.0 mi North 4.6 mph - N/A   Clear
6:53 PM 59.0 °F - 45.0 °F 60% 30.09 in 10.0 mi Calm Calm - N/A   Clear
7:53 PM 57.0 °F - 46.0 °F 67% 30.11 in 10.0 mi NNW 3.5 mph - N/A   Clear
8:53 PM 51.1 °F - 46.0 °F 83% 30.13 in 10.0 mi Calm Calm - N/A   Clear
9:53 PM 50.0 °F - 46.0 °F 86% 30.14 in 10.0 mi Calm Calm - N/A   Clear
10:53 PM 48.9 °F - 46.0 °F 90% 30.15 in 10.0 mi Calm Calm - N/A   Clear
11:53 PM 51.1 °F - 46.9 °F 86% 30.15 in 10.0 mi Calm Calm - N/A   Clear